User: anonymous   Login
Location: Unspecified
(0.0000°N, 0.0000°E)
Time: 12:23:57
(UTC+02:00)
Language:

ARIANE 44L R/B - Orbit

View from above orbital plane
View from above orbital plane
View from above satellite
View from above satellite

Ground track
Ground track

The orbit data is extracted from the following two-line orbital elements,

1 26901U 01039B   15245.83227421 +.00011416 +00000-0 +26465-2 0  9995
2 26901 007.2786 104.2453 6933780 046.9750 082.7780 02.72906208125541
Epoch (UTC): 02 September 2015 19:58:28
Eccentricity: 0.6933780
inclination: 7.2786°
perigee height: 254 km
apogee height: 30249 km
right ascension of ascending node: 104.2453°
argument of perigee: 46.9750°
revolutions per day: 2.72906208
mean anomaly at epoch: 82.7780°
orbit number at epoch: 12554

The dashed part of the orbit path shows where the satellite is in the earth's shadow,  

DLR